Flag for USA

Past Weather in 41°29'17"N, 81°42'51"W, USA — Yesterday and Last 2 Weeks

Now
85 °F

Passing clouds.


Feels Like: 89 °F
Forecast: 91 / 76 °F
Wind: No wind

Location: Cleveland-Hopkins International Airport

Current Time: Jul 9, 2020 at 11:24:29 am

Latest Report: Jul 9, 2020 at 9:51 am


Visibility: 10 mi

Pressure: 29.96 "Hg

Humidity: 59%

Dew Point: 69 °F

Location of 41°29'17"N, 81°42'51"WLocation

Past Weather in 41°29'17"N, 81°42'51"W — Graph

°F

41°29'17"N, 81°42'51"W Temperature Yesterday

Maximum temperature yesterday: 92 °F (at 4:51 pm)
Minimum temperature yesterday: 69 °F (at 4:51 am)
Average temperature yesterday: 80 °F

High & Low Weather Summary for the Past Weeks

 TemperatureHumidityPressure
High93 °F (Jul 7, 1:15 pm)97% (Jun 28, 6:51 am)30.05 "Hg (Jun 28, 6:51 am)
Low58 °F (Jun 25, 5:51 am)28% (Jul 6, 1:51 pm)29.76 "Hg (Jun 27, 7:51 pm)
Average76 °F64%29.95 "Hg
* Reported Jun 24 9:51 am — Jul 9 9:51 am, 41°29'17"N, 81°42'51"W. Weather by CustomWeather, © 2020

Note: Actual official high and low records may vary slightly from our data, if they occured in-between our weather recording intervals... More about our weather records

41°29'17"N, 81°42'51"W Weather History for the Previous 24 Hours

Scroll right to see more
 ConditionsComfort  
Time TempWeatherWind HumidityBarometerVisibility
9:51 am
Thu, Jul 9
85 °FPassing clouds.No wind59%29.96 "Hg10 mi
8:51 am81 °FPassing clouds.3 mph69%29.96 "Hg10 mi
7:51 am76 °FPassing clouds.No wind80%29.96 "Hg10 mi
6:51 am72 °FPassing clouds.N/A87%29.94 "Hg10 mi
5:51 am70 °FClear.6 mph93%29.93 "Hg10 mi
4:51 am71 °FClear.No wind90%29.92 "Hg10 mi
3:51 am72 °FClear.3 mph87%29.91 "Hg10 mi
2:51 am72 °FClear.3 mph87%29.92 "Hg10 mi
1:51 am74 °FPassing clouds.5 mph85%29.93 "Hg10 mi
12:51 am73 °FPassing clouds.No wind88%29.94 "Hg10 mi
11:51 pm
Wed, Jul 8
77 °FPassing clouds.No wind74%29.94 "Hg10 mi
10:51 pm77 °FPassing clouds.3 mph74%29.93 "Hg10 mi
9:51 pm80 °FPartly cloudy.6 mph67%29.93 "Hg10 mi
8:51 pm82 °FBroken clouds.3 mph60%29.91 "Hg10 mi
7:51 pm81 °FThunderstorms. Scattered clouds.7 mph62%29.91 "Hg10 mi
6:51 pm86 °FThunderstorms. Scattered clouds.7 mph57%29.90 "Hg10 mi
5:51 pm90 °FScattered clouds.10 mph52%29.90 "Hg10 mi
4:51 pm92 °FScattered clouds.10 mph49%29.91 "Hg10 mi
4:21 pm91 °FScattered clouds.10 mph50%29.94 "Hg10 mi
3:51 pm91 °FThunderstorms. Scattered clouds.12 mph50%29.93 "Hg10 mi
2:51 pm89 °FPassing clouds.12 mph55%29.94 "Hg10 mi
1:51 pm91 °FPassing clouds.No wind42%29.96 "Hg10 mi
12:51 pm89 °FPassing clouds.7 mph45%29.98 "Hg10 mi
11:51 am87 °FPassing clouds.3 mph51%29.98 "Hg10 mi
Weather by CustomWeather, © 2020

See weather overview